Location: Arrien
(43.3167°N, 0.1500°W)
Time: 23:24:16
(UTC+00:00)

Cosmos 2084 Rocket - Pass Details

Date: 15 October 2021
Orbit: 508 x 671 km, 62.8° (Epoch: 04 December)

Event Time Altitude Azimuth Distance (km) Brightness Sun altitude
Rises 17:48:00 0° 218° (SW) 2,608 7.5 -6.3°
Reaches altitude 10° 17:50:10 10° 220° (SW) 1,720 6.6 -6.7°
Maximum altitude 17:53:59 80° 306° (NW) 521 3.3 -7.4°
Drops below altitude 10° 17:57:53 10° 35° (NE) 1,743 5.5 -8.1°
Enters shadow 17:59:53 - 37° (NE) 2,563 6.3 -8.5°
